Weather History for GMFM - October, 2012

Change the Weather History Date:

Friday, October 12, 2012

  Actual Average Record
Temperature  
Mean Temperature 68 °F -  
Max Temperature 76 °F - - ()
Min Temperature 59 °F - - ()
Cooling Degree Days 3    
Growing Degree Days 18 (Base 50)    
Moisture  
Dew Point 58 °F    
Average Humidity 71    
Maximum Humidity 94    
Minimum Humidity 36    
Precipitation  
Precipitation 0.00 in - - ()
Sea Level Pressure  
Sea Level Pressure 30.08 in    
Wind  
Wind Speed 5 mph ()    
Max Wind Speed 10 mph    
Max Gust Speed -    
Visibility 4.9 miles    
Events      
T = Trace of Precipitation, MM = Missing Value Source: Averaged Metar Reports

Daily Weather History Graph

Daily Weather History Graph

Search for Another Location

Airport or City:

Trip Planner

Search our weather history database for the weather conditions in past years. The results will help you decide how hot, cold, wet, or windy it might be!

Date:

Astronomy

Oct. 12, 2012 Rise Set
Actual Time 6:24 AM WET 5:51 PM WET
Civil Twilight 5:59 AM WET 6:16 PM WET
Nautical Twilight 5:30 AM WET 6:45 PM WET
Astronomical Twilight 5:01 AM WET 7:14 PM WET
Moon 3:01 AM WET (10/12) 3:46 PM WET (10/12)
Length of Visible Light 12h 16m
Length of Day
11h 26m
Waning Crescent, 12% of the Moon is Illuminated
Oct 12
Waning Crescent
Oct 15
New
Oct 22
First Quarter
Oct 29
Full
Nov 7
Last Quarter

Hourly Weather History & Observations

Time (WET) Temp. Dew Point Humidity Pressure Visibility Wind Dir Wind Speed Gust Speed Precip Events Conditions
12:00 AM 66 °F 62 °F 85% 30.06 in 4 mi WNW 4.6 mph - -   Mostly Cloudy
12:00 AM 66.2 °F 62.6 °F 88% 30.12 in 3.7 mi WNW 4.6 mph - N/A   Mostly Cloudy
1:00 AM 64.4 °F 62.6 °F 94% 30.09 in 3.7 mi WNW 2.3 mph - N/A   Mostly Cloudy
3:00 AM 64 °F 62 °F 90% 30.03 in 4 mi West 2.3 mph - -   Mostly Cloudy
3:00 AM 64.4 °F 62.6 °F 94% 30.09 in 3.7 mi West 2.3 mph - N/A   Mostly Cloudy
5:00 AM 64.4 °F 60.8 °F 88% 30.09 in 3.7 mi West 2.3 mph - N/A   Mostly Cloudy
6:00 AM 65 °F 61 °F 82% 30.04 in 3 mi SW 3.5 mph - -   Mostly Cloudy
6:00 AM 64.4 °F 60.8 °F 88% 30.09 in 3.1 mi SW 3.5 mph - N/A   Mostly Cloudy
7:00 AM 64.4 °F 60.8 °F 88% 30.09 in 3.1 mi NNW 3.5 mph - N/A   Mostly Cloudy
8:00 AM 64.4 °F 59.0 °F 83% 30.12 in 3.1 mi WNW 3.5 mph - N/A   Mostly Cloudy
9:00 AM 65 °F 59 °F 76% 30.08 in 3 mi NW 4.6 mph - -   Mostly Cloudy
9:00 AM 66.2 °F 59.0 °F 78% 30.12 in 3.1 mi NW 4.6 mph - N/A   Mostly Cloudy
10:00 AM 68.0 °F 59.0 °F 73% 30.12 in 5.0 mi NW 4.6 mph - N/A   Mostly Cloudy
12:00 PM 73 °F 56 °F 45% 30.03 in 6 mi WNW 8.1 mph - -   Mostly Cloudy
12:00 PM 73.4 °F 55.4 °F 53% 30.12 in 6.2 mi WNW 8.1 mph - N/A   Mostly Cloudy
1:00 PM 75.2 °F 55.4 °F 50% 30.09 in 6.2 mi WNW 9.2 mph - N/A   Mostly Cloudy
2:00 PM 73.4 °F 55.4 °F 53% 30.06 in 6.2 mi NNW 10.4 mph - N/A   Mostly Cloudy
3:00 PM 75 °F 53 °F 36% 29.99 in 6 mi WNW 8.1 mph - -   Mostly Cloudy
3:00 PM 75.2 °F 53.6 °F 47% 30.06 in 6.2 mi WNW 8.1 mph - N/A   Mostly Cloudy
4:00 PM 73.4 °F 55.4 °F 53% 30.06 in 6.2 mi NNW 10.4 mph - N/A   Scattered Clouds
5:00 PM 71.6 °F 55.4 °F 57% 30.06 in 6.2 mi NW 9.2 mph - N/A   Scattered Clouds
6:00 PM 68 °F 55 °F 53% 30.03 in 6 mi NW 6.9 mph - -   Scattered Clouds
7:00 PM 66.2 °F 55.4 °F 68% 30.09 in 6.2 mi NW 8.1 mph - N/A   Partly Cloudy
8:00 PM 64.4 °F 53.6 °F 68% 30.12 in 6.2 mi NW 4.6 mph - N/A   Partly Cloudy
9:00 PM 63 °F 54 °F 66% 30.09 in 6 mi WNW 10.4 mph - -   Scattered Clouds
9:00 PM 62.6 °F 53.6 °F 72% 30.12 in 6.2 mi WNW 10.4 mph - N/A   Partly Cloudy
10:00 PM 60.8 °F 55.4 °F 82% 30.15 in 6.2 mi WNW 4.6 mph - N/A   Partly Cloudy
11:00 PM 59.0 °F 53.6 °F 82% 30.12 in - NW 2.3 mph - N/A   Clear